TimeCDT,TemperatureF,Dew PointF,Humidity,Sea Level PressureIn,VisibilityMPH,Wind Direction,Wind SpeedMPH,Gust SpeedMPH,PrecipitationIn,Events,Conditions,WindDirDegrees,DateUTC
12:53 AM,57.9,46.9,67,30.01,10.0,Calm,Calm,-,N/A,,Clear,0,2011-10-15 05:53:00
1:53 AM,57.9,48.0,70,30.02,10.0,NW,3.5,-,N/A,,Clear,310,2011-10-15 06:53:00
2:53 AM,55.9,48.0,75,30.03,10.0,Calm,Calm,-,N/A,,Clear,0,2011-10-15 07:53:00
3:53 AM,55.9,48.0,75,30.04,10.0,SSW,3.5,-,N/A,,Clear,210,2011-10-15 08:53:00
4:53 AM,55.9,48.0,75,30.05,10.0,NW,3.5,-,N/A,,Clear,320,2011-10-15 09:53:00
5:53 AM,53.1,46.9,80,30.08,10.0,North,9.2,-,N/A,,Clear,350,2011-10-15 10:53:00
6:53 AM,53.1,46.9,80,30.09,10.0,Calm,Calm,-,N/A,,Clear,0,2011-10-15 11:53:00
7:53 AM,53.6,48.2,82,30.08,10.0,NNW,9.2,-,N/A,,Clear,340,2011-10-15 12:53:00
8:53 AM,63.0,48.9,60,30.12,10.0,North,10.4,-,N/A,,Clear,10,2011-10-15 13:53:00
9:53 AM,69.1,48.9,49,30.14,10.0,NNE,12.7,-,N/A,,Clear,20,2011-10-15 14:53:00
10:53 AM,73.4,39.2,29,30.12,10.0,NNE,16.1,-,N/A,,Clear,30,2011-10-15 15:53:00
11:53 AM,77.0,41.0,28,30.12,10.0,NNE,16.1,-,N/A,,Clear,20,2011-10-15 16:53:00
12:53 PM,79.0,39.9,25,30.14,10.0,NNE,11.5,19.6,N/A,,Clear,20,2011-10-15 17:53:00
1:53 PM,80.1,41.0,25,30.11,10.0,NNE,10.4,-,N/A,,Clear,30,2011-10-15 18:53:00
2:53 PM,82.0,41.0,23,30.09,10.0,NNE,9.2,17.3,N/A,,Clear,20,2011-10-15 19:53:00
3:53 PM,81.0,41.0,24,30.08,10.0,North,11.5,-,N/A,,Clear,10,2011-10-15 20:53:00
4:53 PM,81.0,41.0,24,30.08,10.0,NNE,9.2,-,N/A,,Clear,20,2011-10-15 21:53:00
5:53 PM,78.1,42.1,28,30.07,10.0,NE,6.9,-,N/A,,Clear,40,2011-10-15 22:53:00
6:53 PM,72.0,42.1,34,30.08,10.0,NNE,5.8,-,N/A,,Clear,30,2011-10-15 23:53:00
7:53 PM,68.0,41.0,37,30.09,10.0,NNE,6.9,-,N/A,,Clear,20,2011-10-16 00:53:00
8:53 PM,64.4,44.6,49,30.08,10.0,North,3.5,-,N/A,,Clear,350,2011-10-16 01:53:00
9:53 PM,57.9,44.1,60,30.10,10.0,NNE,4.6,-,N/A,,Clear,20,2011-10-16 02:53:00
10:53 PM,57.9,44.1,60,30.12,10.0,North,4.6,-,N/A,,Clear,360,2011-10-16 03:53:00
11:53 PM,55.0,44.1,67,30.12,10.0,North,4.6,-,N/A,,Clear,350,2011-10-16 04:53:00